FW2439 Weather Reports


Display with metric or nautical units.
time (UTC)temp
F
wind
direction
speed
MPH
gust
MPH
rain 1hr
in
rain 24hr
in
rain mn
in
humidity
%
barometer
mb
20260505214605 63 255 0.0 4.0 0.00 0.00 0.00 98 1008.5
20260505213103 63 151 0.0 4.0 0.00 0.00 0.00 98 1008.6
20260505211602 63 186 1.0 6.0 0.00 0.00 0.00 98 1008.6
20260505210056 64 235 1.0 5.0 0.00 0.00 0.00 98 1008.6
20260505204555 64 171 0.0 3.0 0.00 0.00 0.00 98 1008.5
20260505203054 64 204 0.0 5.0 0.00 0.00 0.00 98 1008.7
20260505201552 64 219 1.0 4.0 0.00 0.00 0.00 99 1008.7
20260505200051 64 222 0.0 2.0 0.00 0.00 0.00 99 1008.7
20260505194549 63 162 0.0 1.0 0.00 0.00 0.00 99 1008.7
20260505193049 63 199 0.0 4.0 0.00 0.00 0.00 98 1009.0
20260505191554 62 205 0.0 2.0 0.00 0.00 0.00 98 1009.1
20260505190043 62 204 0.0 4.0 0.00 0.00 0.00 98 1009.7
20260505184543 61 172 1.0 2.0 0.00 0.00 0.00 98 1009.7
20260505183040 61 206 0.0 7.0 0.00 0.00 0.00 98 1010.4
20260505181540 61 203 1.0 6.0 0.00 0.00 0.00 97 1010.3
20260505180049 61 215 2.0 5.0 0.00 0.00 0.00 97 1010.1
20260505174548 61 167 3.0 10.0 0.00 0.00 0.00 97 1009.9
20260505173037 61 253 2.0 7.0 0.00 0.00 0.00 97 1009.5
20260505171536 61 224 3.0 12.0 0.00 0.00 0.00 97 1010.7
20260505170036 60 158 3.0 11.0 0.00 0.00 0.00 97 1009.3
20260505164534 60 193 3.0 12.0 0.00 0.00 0.00 97 1009.8
20260505163038 60 235 1.0 6.0 0.00 0.00 0.00 96 1010.3
20260505161533 60 200 1.0 6.0 0.00 0.00 0.00 95 1010.7
20260505153035 59 223 0.0 5.0 0.00 0.00 0.00 94 1011.2
20260505151530 59 191 1.0 4.0 0.00 0.00 0.00 93 1011.1
20260505124518 60 213 1.0 5.0 0.00 0.00 0.00 85 1011.5
20260505123014 59 160 0.0 4.0 0.00 0.00 0.00 85 1011.3
20260505121514 58 213 0.0 3.0 0.00 0.00 0.00 86 1011.4
20260505120010 58 227 0.0 3.0 0.00 0.00 0.00 87 1011.0
20260505114509 57 228 0.0 1.0 0.00 0.00 0.00 88 1010.4
20260505113008 56 229 0.0 1.0 0.00 0.00 0.00 90 1010.4
20260505111508 56 228 0.0 1.0 0.00 0.00 0.00 91 1010.5
20260505101504 56 228 0.0 0.0 0.00 0.00 0.00 89 1009.9
20260505100004 56 228 0.0 0.0 0.00 0.00 0.00 87 1010.0
20260505094503 57 228 0.0 0.0 0.00 0.00 0.00 85 1010.0
20260505093003 57 228 0.0 0.0 0.00 0.00 0.00 84 1009.7
20260505091501 58 229 0.0 1.0 0.00 0.00 0.00 83 1009.5
20260505090001 58 228 0.0 2.0 0.00 0.00 0.00 83 1009.4
20260505084601 58 219 0.0 0.0 0.00 0.00 0.00 83 1009.4
20260505083117 58 219 0.0 2.0 0.00 0.00 0.00 83 1009.3
20260505081559 57 219 0.0 2.0 0.00 0.00 0.00 85 1009.2
20260505080057 57 219 0.0 0.0 0.00 0.00 0.00 85 1009.2
20260505074556 56 219 0.0 1.0 0.00 0.00 0.00 87 1009.4
20260505073056 55 219 0.0 1.0 0.00 0.00 0.00 88 1009.8
20260505071553 55 219 0.0 0.0 0.00 0.00 0.00 88 1010.3
20260505070052 55 219 0.0 1.0 0.00 0.00 0.00 88 1010.2
20260505064557 55 219 0.0 1.0 0.00 0.00 0.00 87 1011.0
20260505063051 55 219 0.0 0.0 0.00 0.00 0.00 86 1011.2
20260505061544 56 219 0.0 0.0 0.00 0.00 0.00 85 1011.1
20260505060041 56 219 0.0 0.0 0.00 0.00 0.00 84 1011.2
20260505054539 57 219 0.0 1.0 0.00 0.00 0.00 83 1011.1
20260505053036 57 219 0.0 0.0 0.00 0.00 0.00 83 1011.2
20260505051535 58 219 0.0 0.0 0.00 0.00 0.00 81 1011.2
20260505041534 60 219 0.0 1.0 0.00 0.00 0.00 75 1011.4
20260505040031 61 219 0.0 1.0 0.00 0.00 0.00 74 1011.1
20260505034534 62 219 0.0 1.0 0.00 0.00 0.00 72 1011.2
20260505033032 62 219 0.0 1.0 0.00 0.00 0.00 72 1011.1
20260505031528 62 219 0.0 1.0 0.00 0.00 0.00 71 1010.9
20260505030028 63 219 0.0 0.0 0.00 0.00 0.00 68 1010.7
20260505024539 64 219 0.0 1.0 0.00 0.00 0.00 66 1010.9
20260505023026 65 219 0.0 1.0 0.00 0.00 0.00 65 1010.7
20260505021525 66 219 0.0 1.0 0.00 0.00 0.00 63 1010.7
20260505020025 67 219 0.0 2.0 0.00 0.00 0.00 62 1010.4
20260505014530 68 219 0.0 3.0 0.00 0.00 0.00 60 1010.6
20260505013029 68 219 0.0 1.0 0.00 0.00 0.00 59 1010.5
20260505011524 70 219 0.0 2.0 0.00 0.00 0.00 57 1010.3
20260505010024 71 219 0.0 3.0 0.00 0.00 0.00 56 1010.4
20260505004524 72 203 1.0 4.0 0.00 0.00 0.00 53 1010.4
20260505003022 73 212 1.0 5.0 0.00 0.00 0.00 51 1010.5
20260505001522 74 222 2.0 8.0 0.00 0.00 0.00 50 1010.4
20260505000030 74 219 1.0 8.0 0.00 0.00 0.00 49 1010.3
20260504234522 75 179 2.0 8.0 0.00 0.00 0.00 48 1010.4
20260504233023 76 160 3.0 16.0 0.00 0.00 0.00 48 1010.3
20260504231527 77 158 2.0 10.0 0.00 0.00 0.00 48 1010.3
20260504230019 78 207 5.0 9.0 0.00 0.00 0.00 45 1010.4
20260504224522 79 192 1.0 10.0 0.00 0.00 0.00 45 1010.4
20260504223016 79 159 5.0 16.0 0.00 0.00 0.00 45 1010.4
20260504221515 79 170 6.0 14.0 0.00 0.00 0.00 44 1010.3
20260504220019 80 219 5.0 14.0 0.00 0.00 0.00 45 1010.4